Location: Waco, TX
(31.5481°N, 97.1672°W)
Time: 21:26:23
(UTC-06:00)

ISS - Pass Details

Date: 14 February 2018
Orbit: 403 x 407 km, 51.6° (Epoch: 18 February)

Event Time Altitude Azimuth Distance (km) Brightness Sun altitude
Rises 19:12:05 0° 305° (NW) 2,314 0.8 -12.8°
Reaches altitude 10° 19:14:17 10° 295° (WNW) 1,452 -0.1 -13.3°
Maximum altitude 19:17:14 32° 230° (SW) 716 -2.0 -13.9°
Drops below altitude 10° 19:20:10 10° 165° (SSE) 1,446 -1.1 -14.5°
Enters shadow 19:22:03 - 156° (SSE) 2,179 -0.3 -14.9°
